Rahid Nadirov

Chefscout - AZAL
3 Apr 2027
Samstag
Verarbeitung

Persönlichkeit

Anpassungsfähigkeit (8) Ehrgeiz (5) Kontroverse (2) Loyalität (17) Druck (1) Professionalität (6) Fairness (18) Temperament (3)

Profil

Trainerstil Demokratisch
Lizenz Kontinentale A
Entschlossenheit 10
Menschenführung 10
Motivation 10
Disziplin 8
Arbeitszufriedenheit
49%
Ermüdung
0%
Rolle Chefscout
Gehalt 11.3K p/W
Vertrag 14.03.2029

Leistung

Verhalten Normal
Trainingseffektivität
14%
Spielerentwicklung
20%
Verletzungsprävention
40%
Taktische Umsetzung
20%

Letzte Ereignisse

Spieler begutachtet jetzt
Nahm an einer Scouting-Besprechung teil jetzt
Nahm an einer Scouting-Besprechung teil jetzt
Nahm an einer Scouting-Besprechung teil jetzt
Nahm an einer Scouting-Besprechung teil jetzt
Spieler begutachtet jetzt
Spieler begutachtet 7T her
Spieler begutachtet 7T her

Aktuell beobachtet

181
Spieler Verein Status Fähigkeit Vertrauen Beobachtet Zuletzt beobachtet Letzte Stimme
Hakeeb Adelakun Doncaster Rovers Aktiv 99 / 93 40% 7 02.04.2027 -
Louis Appéré Cambridge United Aktiv 87 / 107 40% 2 02.04.2027 -
Alexandr Yushin Torpedo Moscow Aktiv 118 / 104 40% 5 01.04.2027 -
Johnson Amuzu Berekum Chelsea Aktiv 107 / 89 40% 4 01.04.2027 -
Shawn McCoulsky Harrogate Town Aktiv 95 / 68 40% 3 31.03.2027 -
Eljon Toci Dolomiti Bellunesi Aktiv 113 / 97 40% 1 31.03.2027 -
Matty Stevens AFC Wimbledon Aktiv 112 / 114 40% 4 29.03.2027 -
Amur Kalmykov Spartak Kostroma Aktiv 107 / 114 40% 2 29.03.2027 -
Stephen Humphrys Bradford City Aktiv 120 / 115 40% 5 28.03.2027 -
Leon Sabua Fakel Aktiv 104 / 88 40% 1 28.03.2027 -
Mo Dauda Portimonense Aktiv 120 / 95 40% 3 27.03.2027 -
Stanislav Biblyk Chaika Aktiv 101 / 111 40% 4 26.03.2027 -
Ilja Safronov Rotor Aktiv 106 / 107 40% 1 26.03.2027 -
Ognjen Bondžulić Mladost Lucani Aktiv 102 / 109 40% 2 25.03.2027 -
Daniel Udoh Salford City Aktiv 117 / 103 40% 1 22.03.2027 -
Cavid Madatov Khazar Aktiv 97 / 90 40% 4 19.03.2027 -
Lewis McCann Fleetwood Town Aktiv 108 / 98 40% 3 18.03.2027 -
Jonathan Okoronkwo Torpedo Moscow Aktiv 85 / 92 40% 2 18.03.2027 -
Paul Glatzel Swindon Town Aktiv 87 / 112 40% 2 17.03.2027 -
David Karaev KAMAZ Aktiv 88 / 93 40% 4 16.03.2027 -
Kane Drummond Oldham Athletic Aktiv 100 / 85 40% 2 16.03.2027 -
Paublo Jara Chelyabinsk Aktiv 87 / 83 40% 2 15.03.2027 -
Jesús Molina Chelyabinsk Aktiv 99 / 80 40% 1 15.03.2027 -
Ivan Luquetta Neftekhimik Aktiv 115 / 86 40% 3 14.03.2027 -
Ivan Bendera Epicentr Aktiv 94 / 101 40% 1 14.03.2027 -
Václav Sejk Sigma Olomouc Aktiv 107 / 118 40% 3 13.03.2027 -
José Bica Leixões Aktiv 91 / 119 40% 1 12.03.2027 -
Simone Ianesi Pianese Aktiv 84 / 103 40% 2 09.03.2027 -
Amani Richards Milton Keynes Dons Aktiv 81 / 78 40% 1 08.03.2027 -
Tyrese Shade Burton Albion Aktiv 96 / 82 40% 3 07.03.2027 -
Sam Nombe Milton Keynes Dons Aktiv 111 / 109 40% 3 07.03.2027 -
Evgeny Voronin Volga Aktiv 101 / 105 40% 1 06.03.2027 -
Matías Mansilla Yenisey Aktiv 110 / 77 40% 2 05.03.2027 -
Albek Gongapshev Shinnik Aktiv 103 / 104 40% 2 04.03.2027 -
Soslan Lysenko Spartak Nalchik Aktiv 93 / 62 40% 1 04.03.2027 -
Alexandr Dolgov Amkar Aktiv 98 / 99 40% 3 28.02.2027 -
Marcus Browne AFC Wimbledon Aktiv 96 / 98 40% 5 26.02.2027 -
Pavel Popov Volna Aktiv 85 / 67 40% 1 26.02.2027 -
Elliott List Northampton Town Aktiv 112 / 105 40% 2 25.02.2027 -
Denis Rubanov Dinamo Stavropol Aktiv 74 / 105 40% 1 25.02.2027 -
Amar Rahmanović Krylya Sovetov Aktiv 106 / 91 40% 2 22.02.2027 -
Milan Vidakov Radnicki 1923 Aktiv 85 / 87 40% 6 20.02.2027 -
Ramil Şeydayev Kapaz Aktiv 107 / 89 40% 3 19.02.2027 -
Migran Ageyan Ufa Aktiv 77 / 90 40% 3 16.02.2027 -
Rashid Magomedov Neftekhimik Aktiv 79 / 73 40% 1 13.02.2027 -
Jacobo Alcalde SKA Khabarovsk Aktiv 100 / 89 40% 2 10.02.2027 -
Maxim Kutovoy Salyut Aktiv 94 / 99 40% 3 08.02.2027 -
Realdo Fili Khazar Aktiv 98 / 109 40% 4 07.02.2027 -
Patryk Szwedzik Ruch Aktiv 92 / 115 40% 2 06.02.2027 -
Daniil Agureev Amkar Aktiv 103 / 77 40% 1 06.02.2027 -
Dawid Polkowski Al-Njoom Aktiv 74 / 83 40% 1 30.01.2027 -
Marcos Cuenca Zaragoza Aktiv 95 / 110 40% 2 29.01.2027 -
Ilja Gruznov Khimik Aktiv 99 / 72 40% 1 29.01.2027 -
Brandon Hanlan Doncaster Rovers Aktiv 89 / 107 40% 3 27.01.2027 -
Kirill Bogdanets Volna Aktiv 101 / 106 40% 1 22.01.2027 -
Dominik Kocsis Debrecen Aktiv 120 / 110 40% 2 18.01.2027 -
Aaron Drinan Swindon Town Aktiv 111 / 87 40% 1 15.01.2027 -
Vladislav Yakovlev Volga Aktiv 106 / 111 40% 1 14.01.2027 -
Josh Woods Accrington Stanley Aktiv 87 / 73 40% 2 09.01.2027 -
Dilan Ortíz Ufa Aktiv 100 / 114 40% 1 09.01.2027 -
Mésaque Djú Portimonense Aktiv 102 / 121 40% 1 06.01.2027 -
Piotr Samiec-Talar Slask Aktiv 98 / 127 40% 3 05.01.2027 -
Kamarai Swyer Northampton Town Aktiv 95 / 99 40% 3 04.01.2027 -
Vitaly Dunay (Karpenko) Chaika Aktiv 99 / 93 40% 1 31.12.2026 -
Ben Killip Portsmouth Aktiv 85 / 89 40% 2 30.12.2026 -
Alexandr Selikhov Ural Aktiv 123 / 129 40% 4 30.12.2026 -
Alexandr Saplinov Volga Aktiv 90 / 82 40% 3 30.12.2026 -
Martin Zlomislić Qarabag Aktiv 131 / 115 40% 2 23.12.2026 Mehr Infos nötig
Alexandr Olenev Nart Aktiv 71 / 77 40% 1 20.12.2026 -
Pachu Kapaz Aktiv 93 / 102 40% 3 19.12.2026 -
Manu Garrido Vizela Aktiv 121 / 117 40% 1 18.12.2026 -
Ruslan Bayramov Inter Aktiv 93 / 98 40% 3 17.12.2026 -
Daniil Konoplev Dinamo Bryansk Aktiv 70 / 97 40% 1 17.12.2026 -
Gedeon Guzina Orenburg Aktiv 120 / 107 40% 2 16.12.2026 -
Ignacio Colombo Zabbar St. Patrick Aktiv 83 / 85 40% 1 16.12.2026 -
Abdulbasit Hawsawi Al-Ettifaq Aktiv 87 / 85 40% 1 12.12.2026 -
Kewin Damac Aktiv 125 / 107 40% 1 12.12.2026 -
Maycon Cleiton Zira Aktiv 91 / 99 40% 1 10.12.2026 -
Rostislav Soldatenko Torpedo Moscow Aktiv 111 / 111 40% 1 10.12.2026 -
Marcel Reguła Zaglebie Aktiv 114 / 125 40% 1 08.12.2026 -
Ivan Lomaev Ufa Aktiv 92 / 111 40% 1 07.12.2026 -
David Volk Dinamo Makhachkala Aktiv 95 / 98 40% 1 07.12.2026 -
Marcelo Sliema Wanderers Aktiv 100 / 102 40% 1 07.12.2026 Mehr Infos nötig
Robert Murić Floriana Aktiv 86 / 92 40% 1 06.12.2026 -
Claudio Salto Almagro Aktiv 92 / 100 40% 2 04.12.2026 -
Pedro Cejas Zabbar St. Patrick Aktiv 106 / 106 40% 3 30.11.2026 -
Jere Vrcić Birkirkara Aktiv 82 / 105 40% 2 30.11.2026 -
Marios Siabanis Volos NPS Aktiv 124 / 105 40% 1 30.11.2026 -
Yeangel Montero Naxxar Lions Aktiv 101 / 121 40% 3 29.11.2026 -
Christoffer Mafoumbi Marsaxlokk Aktiv 102 / 66 40% 2 28.11.2026 -
Vadim Averkiev Orel Aktiv 86 / 107 40% 1 28.11.2026 -
Ivo Costantino Danubio Aktiv 98 / 110 40% 2 25.11.2026 -
Patrick Schmidt Tarxien Rainbows Aktiv 115 / 100 40% 3 23.11.2026 -
Luke Southwood Bristol Rovers Aktiv 95 / 96 40% 1 23.11.2026 -
Kamran Aliev SKA Khabarovsk Aktiv 85 / 117 40% 1 21.11.2026 -
Mason Bennett Harrogate Town Aktiv 68 / 79 40% 3 17.11.2026 -
Roman Raifegerste Khimik Aktiv 70 / 70 40% 2 17.11.2026 -
Daniil Kondrakov KDV Tomsk Aktiv 76 / 98 40% 1 17.11.2026 -
Nikita Chagrov Rotor Aktiv 118 / 102 40% 1 17.11.2026 -
Gentian Selmani Teuta Durrës Aktiv 133 / 112 40% 1 15.11.2026 -
Ilja Tuseev Chelyabinsk Aktiv 111 / 110 40% 1 13.11.2026 -
Jack Vale Alcione Milano Aktiv 83 / 113 40% 1 13.11.2026 -
Jordan Amissah Burton Albion Aktiv 99 / 87 40% 1 11.11.2026 -
Vladimir Zadiraka Dinamo Kirov Aktiv 70 / 74 40% 1 11.11.2026 -
Mathew Hudson Oldham Athletic Aktiv 92 / 97 40% 1 09.11.2026 -
Víctor Cabezas Union Magdalena Aktiv 127 / 100 40% 2 05.11.2026 -
Akpan Udoh Mosta Aktiv 93 / 83 40% 1 05.11.2026 -
Nikita Zheimo Murom Aktiv 85 / 84 40% 1 04.11.2026 -
Jordan Rezabala Neftchi Aktiv 101 / 86 40% 1 02.11.2026 -
Aleksej Golijanin Sokol Aktiv 98 / 87 40% 1 02.11.2026 -
Lucas González Estudiantes Aktiv 107 / 104 40% 1 01.11.2026 -
Fabrizio Correa Juventud Aktiv 99 / 112 40% 1 01.11.2026 -
Vitaly Gudiev Akron Aktiv 109 / 119 40% 1 31.10.2026 -
Vladislav Yampolskiy Volgar Aktiv 70 / 95 40% 1 31.10.2026 -
Fernandinho Sliema Wanderers Aktiv 73 / 106 40% 1 29.10.2026 -
Frédéric Maciel CSKA 1948 Aktiv 123 / 100 40% 2 27.10.2026 -
Jurica Poldrugač Rudes Aktiv 83 / 91 40% 1 27.10.2026 -
Uroš Đuranović Sliema Wanderers Aktiv 94 / 92 40% 1 26.10.2026 -
Alex Tanque Valletta Aktiv 67 / 63 40% 1 26.10.2026 -
Rafael Hornos Liverpool Montevideo Aktiv 95 / 82 40% 1 26.10.2026 -
Nemanja Andrijanić Kapaz Aktiv 91 / 99 40% 2 23.10.2026 -
Bassala Sambou Neftchi Aktiv 114 / 105 40% 2 22.10.2026 -
Luke McGee Tranmere Rovers Aktiv 98 / 103 40% 3 20.10.2026 -
Godswill Utum Wikki Tourists Aktiv 94 / 70 40% 1 20.10.2026 -
Promise Omochere Bristol Rovers Aktiv 111 / 106 40% 2 17.10.2026 -
Bo Geens NK Zavrc Aktiv 77 / 82 40% 1 16.10.2026 -
Aydın Bayramov Zira Aktiv 91 / 93 40% 1 14.10.2026 -
Jordan Roberts Stevenage Aktiv 106 / 107 40% 4 12.10.2026 -
Fərid Nəbiyev Kapaz Aktiv 103 / 86 40% 1 12.10.2026 -
Diamanka Senghor Mosta Aktiv 75 / 100 40% 2 11.10.2026 -
Guilherme Cioletti Floriana Aktiv 104 / 106 40% 2 10.10.2026 -
Ismahil Akinade Gabala Aktiv 110 / 92 40% 1 05.10.2026 -
Will Davies Fleetwood Town Aktiv 90 / 106 40% 3 04.10.2026 -
Luís Mota Zabbar St. Patrick Aktiv 74 / 84 40% 1 01.10.2026 -
Michael Creek Inter Aktiv 105 / 107 40% 1 01.10.2026 -
Jeimes Sumgayit Aktiv 105 / 100 40% 1 01.10.2026 -
Cristhian Medina Smorgon Aktiv 77 / 83 40% 1 29.09.2026 -
Qara Ozobic Inter Aktiv 114 / 110 40% 1 28.09.2026 -
Jamie Reid Stevenage Aktiv 120 / 90 40% 1 25.09.2026 -
Eduardo Villanueva Colo-Colo Aktiv 71 / 87 40% 1 25.09.2026 -
Javier Martínez Almirante Brown Aktiv 104 / 113 40% 1 23.09.2026 -
Facundo Rodríguez Talleres Aktiv 67 / 113 40% 1 23.09.2026 -
Rodrigo Marquês Oliveirense Aktiv 72 / 103 40% 1 20.09.2026 -
Jeremías Robledo Acosta Newell's Old Boys Aktiv 65 / 85 40% 1 20.09.2026 -
Gonzalo Tapia Palestino Aktiv 104 / 79 40% 2 18.09.2026 -
Ricardo Solbes Unión de Santa Fe Aktiv 91 / 83 40% 1 18.09.2026 -
Franko Sabljić AS Trencin Aktiv 104 / 115 40% 1 17.09.2026 -
Tobias Hedl Zulte Waregem Aktiv 107 / 89 40% 1 17.09.2026 -
Enzo Larrosa Independiente Medellin Aktiv 93 / 112 40% 2 14.09.2026 -
Matías Caballero Patronato Aktiv 109 / 99 40% 1 13.09.2026 -
Nahuel González Alvarado Aktiv 99 / 101 40% 1 13.09.2026 -
Tiago Benzi Belgrano Aktiv 101 / 97 40% 1 13.09.2026 -
Marcel Monsberger Vaduz Aktiv 117 / 98 40% 1 12.09.2026 -
Ramiro Ruiz Rodríguez Atlético Tucumán Aktiv 130 / 121 40% 1 12.09.2026 -
Franco Domínguez Ávila Estudiantes Aktiv 92 / 99 40% 1 11.09.2026 -
Ağadadaş Salyanskiy Neftchi Aktiv 88 / 86 40% 1 11.09.2026 -
Anthony Lokosa Tarxien Rainbows Aktiv 107 / 90 40% 1 10.09.2026 -
Vincent Temitope Plateau United Aktiv 84 / 99 40% 1 10.09.2026 -
Daniel Tarazona Neftchi Aktiv 100 / 98 40% 1 08.09.2026 -
Aaron Centurión Vélez Aktiv 92 / 121 40% 1 07.09.2026 -
Alejandro Rodríguez Deportivo Cali Aktiv 109 / 102 40% 1 07.09.2026 -
Abdullateef Ishola Rangers International Aktiv 89 / 83 40% 1 05.09.2026 -
Francisco Garrido Ferro Carril Oeste Aktiv 90 / 105 40% 1 05.09.2026 -
Abdulmajid Aminu Barau Aktiv 82 / 83 40% 1 02.09.2026 -
Ali Reghba NK Maribor Aktiv 92 / 101 40% 1 02.09.2026 -
Kasra Taheri Sepahan Aktiv 105 / 123 40% 1 01.09.2026 -
Saidu Salisu Barau Aktiv 70 / 76 40% 1 01.09.2026 -
Genaro Rossi San Martín SJ Aktiv 117 / 119 40% 2 31.08.2026 -
Kufre Ebong Niger Tornadoes Aktiv 83 / 95 40% 1 31.08.2026 -
Francisco Galván Deportivo Municipal Aktiv 98 / 92 40% 2 27.08.2026 -
Jano Franco Independiente Rivadavia Aktiv 80 / 93 40% 1 27.08.2026 -
Vladislav Yatskevich BATE Aktiv 102 / 112 40% 1 24.08.2026 -
Jaze Kabia Grimsby Town Aktiv 83 / 72 40% 1 23.08.2026 -
Oliver Heiðarsson Lokomotiva Zagreb Aktiv 92 / 96 40% 1 22.08.2026 -
Juan Cruz Zurbriggen San Telmo Aktiv 110 / 80 40% 1 22.08.2026 -
Matija Malekinušić Novi Pazar Aktiv 104 / 122 40% 1 21.08.2026 -
Leroy-Jacques Mickels Zira Aktiv 88 / 110 40% 1 21.08.2026 -
Gian Piaggio Colón Aktiv 103 / 91 40% 1 11.08.2026 -
Eddy Nadirov Inter Verhandlung 63 / 67 51% 1 03.08.2026 Beobachten
Elías Contreras Morón Aktiv 102 / 93 40% 1 01.08.2026 -
Leandro Suhr Boston River Aktiv 124 / 104 40% 1 01.08.2026 -